Location: Carrer del Canonge
(41.4901°N, 2.2931°E)
Time: 16:49:13
(UTC+00:00)

ISS - Visible Passes

Search period start: 25 November 2020 00:00
Search period end: 05 December 2020 00:00
Orbit: 418 x 421 km, 51.6° (Epoch: 25 November)

Date Brightness Start Highest point End Pass type
(mag) Time Alt. Az. Time Alt. Az. Time Alt. Az.
25 Nov -1.9 17:57:27 10° WNW 18:00:06 21° NNW 18:00:57 19° N visible
26 Nov -2.2 17:09:32 10° W 17:12:27 27° NNW 17:15:21 10° NE visible
26 Nov -0.7 18:48:08 10° NW 18:48:19 11° NW 18:48:19 11° NW visible
27 Nov -1.6 18:00:14 10° NW 18:02:22 16° N 18:02:41 15° N visible
28 Nov -1.7 17:12:16 10° WNW 17:14:38 18° NNW 17:17:00 10° NNE visible
29 Nov -1.5 18:02:40 10° NNW 18:04:22 15° N 18:04:22 15° N visible
30 Nov -1.5 17:14:53 10° NW 17:16:52 15° N 17:18:44 10° NNE visible
01 Dec -1.6 18:04:29 10° NNW 18:06:06 17° N 18:06:06 17° N visible
02 Dec -1.7 17:16:57 10° NNW 17:19:06 16° N 17:20:32 13° NE visible
02 Dec -0.6 18:53:25 10° NW 18:53:29 10° NW 18:53:29 10° NW visible
03 Dec -2.1 18:05:59 10° NW 18:08:00 24° N 18:08:00 24° N visible
04 Dec -2.2 17:18:32 10° NW 17:21:12 21° NNE 17:22:35 17° NE visible
04 Dec -0.8 18:54:58 10° NW 18:55:33 14° NW 18:55:33 14° NW visible
